Theta_e
323 322 322 321 321 321 320 319 319 319 319 319 320 320 322 324 323 326 327 328 328 328 328 328 327 326 326 326 326 326 326 326 325 324 324 324 324 323 322 321 320 320
322 321 320 320 320 319 318 318 318 319 319 319 320 320 319 319 320 323 325 326 326 327 327 327 327 327 327 326 326 326 325 325 325 325 325 324 323 322 322 322 321 320
320 319 319 319 320 318 317 317 318 318 319 319 318 319 319 318 320 321 324 325 325 325 326 326 326 326 326 326 325 325 325 325 323 323 322 323 324 323 322 321 321 320
318 319 319 319 319 319 316 316 316 316 315 316 316 317 318 318 319 319 321 317 323 324 325 326 325 325 325 326 325 324 324 324 325 324 322 320 319 321 321 321 320 320
315 316 317 318 317 315 314 315 315 315 315 316 315 314 314 315 316 317 318 319 321 322 323 323 324 324 324 324 324 323 322 323 323 323 322 321 320 319 319 319 319 319
311 314 314 314 313 313 313 314 314 314 314 311 313 311 313 314 314 314 314 315 316 319 320 321 322 323 323 322 322 322 321 319 320 321 321 320 320 319 320 318 316 315
308 307 308 308 307 309 311 311 311 309 311 311 305 309 309 309 311 312 313 314 316 316 319 320 320 321 321 321 320 319 319 318 317 318 318 318 317 317 317 318 318 318
303 301 305 304 306 305 307 306 305 305 305 301 304 307 305 310 309 310 310 312 314 315 317 318 319 320 319 318 317 315 314 316 316 316 316 315 312 313 311 312 313 313
299 301 302 301 303 301 302 301 300 298 299 303 302 300 299 305 306 307 310 312 313 314 316 316 317 317 318 317 316 315 313 311 311 312 314 314 314 314 313 312 310 309
298 295 296 298 301 299 299 295 296 297 295 298 299 298 299 300 302 307 308 310 311 311 311 312 313 312 308 308 313 312 312 314 313 311 310 311 311 310 309 307 307 307
293 292 297 296 299 296 296 293 295 295 295 299 298 298 301 300 300 302 304 306 309 310 311 309 309 309 310 308 308 309 311 312 312 311 310 310 310 310 304 308 308 308
294 291 296 297 297 296 296 295 295 296 297 296 298 305 299 299 302 300 302 304 303 305 304 305 305 304 304 304 305 305 304 305 306 307 308 308 308 307 306 305 306 306
293 294 294 293 293 294 293 294 294 292 295 297 294 297 298 298 297 299 297 300 302 302 302 302 303 302 303 302 303 303 304 303 303 303 304 303 303 303 303 303 303 302
295 294 294 294 294 294 295 295 295 295 296 295 293 296 296 296 297 298 296 295 297 298 298 298 299 299 299 299 300 300 300 300 300 300 299 299 297 297 298 299 300 300
294 293 294 295 294 295 295 296 296 296 295 293 292 294 293 293 294 295 295 296 294 294 295 295 297 298 298 298 298 299 298 299 299 299 298 297 296 295 295 296 297 298
296 295 296 294 295 295 295 293 293 293 293 292 292 292 291 291 292 292 293 294 294 293 293 294 295 297 294 294 296 299 298 298 297 296 295 295 295 294 294 294 294 294
296 296 295 295 295 295 293 292 292 291 291 291 291 291 292 290 290 292 292 291 293 293 292 293 294 295 293 296 296 296 296 296 297 295 294 293 293 293 293 291 291 291
295 295 294 294 293 293 292 291 290 289 290 290 289 289 289 288 290 292 291 290 290 290 290 291 291 292 294 295 295 295 295 295 294 294 293 292 291 291 290 290 289 289
295 294 293 293 292 292 291 290 289 289 289 289 289 289 288 289 290 289 289 288 289 290 289 289 289 291 293 294 294 295 295 294 293 293 291 290 290 290 290 290 289 288
294 293 293 292 291 290 289 289 289 290 289 289 288 287 288 288 288 288 288 288 289 289 289 289 289 290 293 293 293 294 295 294 292 291 290 290 290 289 289 288 288 288
294 293 292 291 290 290 289 289 289 289 288 288 288 289 289 289 289 288 288 287 287 288 288 289 290 291 292 293 293 294 295 294 290 291 290 289 289 289 288 288 288 288
293 293 292 291 290 289 289 289 289 289 289 287 287 287 287 288 288 288 288 287 287 287 288 288 289 291 292 292 293 294 294 290 288 289 288 288 288 288 288 287 287 287
293 293 292 291 290 289 289 289 289 288 288 288 288 287 287 287 288 287 287 288 287 288 288 288 288 289 291 292 292 294 292 288 289 287 288 288 288 287 286 286 286 287
293 293 292 290 289 289 289 289 289 289 288 288 289 288 288 288 287 287 287 287 287 287 288 288 288 287 290 291 292 293 290 288 288 287 286 287 287 286 286 285 285 285
293 292 291 290 289 289 290 289 288 289 288 288 289 289 288 287 287 287 287 287 287 287 287 287 287 287 289 291 291 292 289 288 287 287 287 286 286 285 284 283 282 283
292 291 290 290 289 289 289 289 288 288 288 288 287 288 287 287 287 287 287 287 286 286 287 287 287 287 287 290 291 292 291 287 287 287 287 287 286 286 285 284 282 282
Wind_Speed
12 11 12 11 11 9 8 8 7 8 8 6 8 8 9 8 8 9 10 10 10 11 11 11 11 10 10 10 11 11 11 10 8 6 7 9 12 13 13 12 12 11
13 12 9 8 8 7 6 7 7 9 9 8 8 7 7 6 8 9 10 11 11 12 12 12 11 11 11 9 9 10 9 9 12 11 13 15 12 10 11 13 13 12
10 9 10 10 10 8 8 7 8 8 8 8 7 7 7 7 8 9 10 10 11 11 12 11 11 10 11 10 9 9 11 12 10 6 7 10 10 12 11 10 9 10
9 9 9 9 9 9 7 7 7 6 6 7 8 8 8 8 8 9 9 10 10 10 10 10 11 10 10 11 11 9 9 10 11 11 10 6 5 6 8 9 10 10
8 8 8 8 7 7 6 7 8 7 8 9 7 7 7 7 7 7 8 8 9 9 9 9 10 10 9 9 9 9 8 8 8 8 10 12 9 8 7 7 10 13
7 7 7 7 6 7 7 8 8 8 8 7 8 6 7 7 7 8 7 7 7 8 9 9 9 10 10 10 8 9 8 5 6 9 11 12 11 10 8 8 9 9
7 6 6 5 6 7 8 8 7 7 7 7 5 6 6 6 7 8 8 8 9 9 10 10 9 9 8 8 7 8 9 9 8 8 9 10 10 10 10 11 12 13
6 5 6 6 7 7 7 7 6 6 7 4 6 7 6 7 7 7 6 7 8 8 9 9 9 9 8 8 9 8 5 5 7 9 9 8 6 7 6 7 8 10
6 6 7 6 7 6 6 6 5 5 4 6 5 5 4 5 6 6 7 7 7 7 8 8 9 9 9 9 9 9 7 5 6 7 9 9 8 9 9 9 9 9
7 6 6 6 7 6 7 5 5 5 3 4 4 3 3 4 4 4 5 6 7 7 7 7 7 7 5 4 5 4 5 7 6 6 7 7 8 7 6 6 8 8
6 6 7 7 8 6 6 5 4 4 4 4 3 3 4 3 4 4 4 5 6 7 7 7 6 5 5 4 4 5 6 7 7 6 7 7 8 8 8 8 9 10
7 6 8 8 7 5 5 4 4 4 4 3 3 3 3 3 3 3 4 4 4 4 3 3 2 3 3 3 3 2 3 4 4 5 5 6 6 6 5 5 6 7
8 8 7 6 5 5 4 3 3 3 3 4 3 3 3 3 3 3 3 3 3 3 3 3 3 2 2 3 3 3 4 4 5 5 5 5 5 5 5 5 6 6
7 5 4 4 4 4 4 3 2 1 1 0 1 2 3 3 3 3 2 2 3 3 3 2 2 2 2 3 4 4 4 4 5 5 4 4 4 4 4 5 6 6
4 4 4 4 4 4 3 3 3 2 2 3 3 3 3 3 3 2 2 2 2 3 3 2 3 3 3 4 4 5 5 4 5 5 6 6 6 6 5 6 6 7
4 4 4 3 3 4 3 3 4 4 5 4 4 4 4 3 3 3 3 3 3 2 1 2 3 3 4 7 6 4 4 5 4 5 5 6 6 6 5 5 4 3
5 5 4 5 4 4 4 4 5 4 4 4 4 4 4 4 4 4 4 4 4 4 3 3 3 2 2 4 5 7 4 3 4 4 3 4 4 4 5 4 2 1
6 6 6 6 5 5 5 5 4 4 4 5 4 4 3 3 3 4 3 3 3 2 3 3 2 2 3 4 5 5 5 3 3 3 2 3 3 4 3 3 3 3
7 7 7 6 6 6 5 5 5 5 5 4 5 4 3 4 4 3 3 3 3 3 3 3 3 2 2 3 4 5 6 3 1 1 2 3 3 3 2 2 2 2
8 8 8 7 6 6 5 6 6 6 5 4 3 3 4 4 3 3 3 3 3 4 3 2 2 3 4 5 5 5 5 5 3 2 3 3 4 3 3 3 4 4
9 8 7 7 6 6 6 6 6 5 5 4 4 5 5 6 5 4 4 3 3 2 2 2 3 3 4 5 6 6 7 6 3 3 3 3 4 3 4 4 4 5
9 9 8 8 8 7 7 7 7 6 6 4 3 3 2 2 2 2 3 3 3 2 2 2 2 3 4 4 5 5 6 3 3 3 4 3 3 2 3 3 4 4
10 10 10 9 9 9 9 8 8 6 5 4 5 4 4 4 5 3 3 4 3 3 4 2 1 2 2 3 3 5 5 4 4 3 3 3 3 2 2 2 3 3
11 11 11 10 10 10 9 8 6 6 6 6 7 6 5 5 4 3 2 3 3 3 3 3 2 2 2 3 4 7 6 5 4 3 3 3 3 2 2 2 2 4
10 11 10 10 11 10 9 9 9 8 6 6 5 6 5 4 4 4 3 2 3 4 5 5 3 3 4 5 7 8 6 4 4 3 3 3 3 2 1 1 1 2
10 11 10 11 10 8 8 8 6 6 7 7 5 5 5 5 5 4 5 4 3 4 5 5 5 5 4 7 7 8 9 5 4 4 5 4 3 3 2 1 1 2
Wind_Direction
215 210 217 215 222 220 210 208 209 213 218 213 219 220 217 219 208 211 217 219 219 223 224 227 228 229 227 228 231 241 250 250 242 228 233 227 220 218 225 224 218 217
215 213 216 216 223 214 213 201 205 209 217 214 217 218 216 207 209 207 213 216 217 220 223 225 225 224 223 222 221 225 234 240 243 234 223 214 219 226 233 227 218 213
211 208 210 213 216 211 206 203 207 210 213 216 216 212 215 208 210 210 214 214 218 220 221 223 224 222 222 222 222 223 227 237 253 255 252 246 232 216 210 215 228 220
211 206 209 214 212 214 202 203 213 214 215 222 217 215 212 212 208 211 214 215 219 222 221 221 222 224 222 222 219 222 224 229 230 237 246 244 239 239 228 215 218 225
201 204 206 209 210 207 195 204 210 209 213 219 220 215 214 215 214 214 213 215 217 221 221 222 223 226 228 231 224 224 222 232 238 246 248 248 239 223 227 228 231 223
208 204 201 198 194 191 199 206 209 206 213 216 217 208 212 211 212 214 211 214 215 218 222 223 223 224 222 219 216 219 215 234 252 242 239 237 237 230 225 213 221 235
199 193 197 192 189 194 199 207 207 207 210 215 203 215 204 206 210 212 211 212 212 212 215 217 219 223 218 216 219 229 223 224 238 243 246 242 226 221 220 224 228 231
198 193 189 186 191 194 200 198 200 199 202 186 198 217 195 206 208 209 209 211 213 216 217 218 218 219 216 217 224 226 231 229 235 241 248 249 243 236 223 223 225 228
184 191 185 189 190 192 192 193 196 194 178 186 200 210 205 205 207 204 208 211 214 217 217 217 218 219 219 218 219 217 219 230 233 238 243 244 237 234 227 226 228 225
188 185 177 183 189 193 193 194 186 189 178 183 186 188 190 217 204 201 207 208 213 219 219 220 221 225 227 221 219 218 234 243 245 236 237 243 243 244 245 234 230 232
188 180 183 190 195 189 194 179 189 181 179 174 163 181 209 202 217 199 196 204 213 214 215 215 215 210 213 226 234 233 231 231 235 239 237 238 238 238 236 225 225 225
190 187 196 197 194 190 190 181 177 182 179 176 177 195 198 215 209 215 202 205 209 221 226 235 241 239 234 244 257 275 289 281 269 258 249 245 243 242 240 231 229 233
202 204 195 190 185 181 167 155 157 160 169 183 178 190 197 218 223 226 246 223 240 230 238 243 258 265 264 265 268 257 244 244 248 246 246 249 247 240 234 227 224 223
208 196 189 181 167 158 161 162 168 181 175 160 128 178 206 218 211 202 220 188 226 216 214 201 209 216 229 234 235 241 236 237 233 235 239 244 248 242 225 218 214 211
182 184 169 164 164 169 188 205 217 235 247 237 221 224 204 202 197 184 184 202 210 197 215 204 194 221 225 227 230 230 215 222 222 218 214 219 221 217 213 209 208 208
179 175 172 165 175 194 203 197 202 205 204 207 211 208 215 210 195 203 195 202 218 245 238 197 208 218 214 217 216 223 219 217 212 213 212 210 212 217 225 224 223 214
187 191 176 194 195 183 185 189 194 188 189 202 209 203 202 202 194 206 222 218 212 209 208 216 221 205 236 234 229 226 219 216 216 223 215 215 217 216 225 223 227 200
193 187 189 193 181 185 183 189 178 180 188 190 186 191 202 168 188 214 218 213 197 193 207 218 232 239 236 236 236 242 231 229 229 222 211 223 226 226 227 189 195 194
188 187 190 188 192 182 182 175 180 187 189 178 195 195 154 174 205 182 204 199 183 192 213 213 223 254 260 259 247 236 224 202 192 203 188 226 228 224 209 198 180 181
186 185 188 187 180 177 176 181 183 192 195 192 168 150 173 185 179 193 196 197 198 199 208 209 209 216 211 219 228 224 210 185 176 179 195 198 202 198 191 187 181 185
186 185 184 178 178 178 181 186 187 192 187 181 174 177 177 188 188 191 204 200 210 196 185 216 226 220 219 215 209 195 187 171 153 155 168 187 190 184 183 184 189 191
182 181 178 177 179 180 184 188 191 185 184 174 160 167 161 142 162 162 184 201 192 168 166 214 265 257 228 219 201 190 161 132 138 153 169 182 191 180 176 179 177 185
182 179 180 180 179 181 185 186 184 187 180 163 159 173 173 186 186 180 176 174 172 168 169 188 251 275 236 204 175 159 137 135 144 147 170 187 204 192 191 179 187 189
181 180 180 179 181 187 184 183 183 180 177 177 172 170 187 197 180 162 159 162 161 172 169 162 203 272 237 208 185 176 163 160 162 157 181 204 216 203 188 200 214 201
178 179 179 178 185 186 179 181 184 182 173 175 177 173 179 167 157 150 156 164 172 169 168 157 176 209 208 202 195 182 167 158 160 164 185 220 208 223 172 193 214 211
179 179 179 179 183 178 181 180 170 167 171 171 172 167 159 162 155 154 163 179 171 167 178 174 173 199 204 202 196 187 172 161 164 165 203 212 202 199 189 208 185 211